Midlothian, TX

5:06 AM CDT on September 28, 2016 (GMT -0500)
Midlothian

Weather History for KJWY - March, 2014

Change the Weather History Date:

Saturday, March 8, 2014

  Actual Average (KRBD) Record (KRBD)
Temperature  
Mean Temperature 45 °F -  
Max Temperature 53 °F 61 °F 82 °F (2009)
Min Temperature 37 °F 42 °F 24 °F (2008)
Degree Days  
Heating Degree Days 20    
Moisture  
Dew Point 41 °F    
Average Humidity 77    
Maximum Humidity 94    
Minimum Humidity 62    
Precipitation  
Precipitation 0.00 in - - ()
Sea Level Pressure  
Sea Level Pressure 30.10 in    
Wind  
Wind Speed 9 mph (WNW)    
Max Wind Speed 22 mph    
Max Gust Speed 28 mph    
Visibility 7 miles    
Events Rain    
Averages and records for this station are not official NWS values.
T = Trace of Precipitation, MM = Missing Value Source: NWS Daily Summary

Daily Weather History Graph

Daily Weather History Graph

Search for Another Location

Airport or City:

Trip Planner

Search our weather history database for the weather conditions in past years. The results will help you decide how hot, cold, wet, or windy it might be!

Date:

Astronomy

Mar. 08, 2014 Rise Set
Actual Time 6:46 AM CST 6:30 PM CST
Civil Twilight 6:22 AM CST 6:55 PM CST
Nautical Twilight 5:53 AM CST 7:23 PM CST
Astronomical Twilight 5:25 AM CST 7:52 PM CST
Moon 11:49 AM CST (3/8) 1:08 AM CST (3/8)
Length of Visible Light 12h 32m
Length of Day
11h 43m
First Quarter, 52% of the Moon is Illuminated
Mar 8
First Quarter
Mar 16
Full
Mar 23
Last Quarter
Mar 30
New
Apr 7
First Quarter

Hourly Weather History & Observations

Time (CST) Temp. Windchill Dew Point Humidity Pressure Visibility Wind Dir Wind Speed Gust Speed Precip Events Conditions
12:15 AM 50.9 °F - 44.2 °F 78% 29.88 in 10.0 mi SSE 9.2 mph - N/A   Clear
12:35 AM 51.1 °F - 45.0 °F 80% 29.88 in 10.0 mi SSE 9.2 mph - N/A   Clear
12:55 AM 51.3 °F - 45.5 °F 81% 29.89 in 10.0 mi SSE 8.1 mph - N/A   Clear
1:15 AM 50.9 °F - 45.5 °F 82% 29.90 in 10.0 mi SSE 6.9 mph - N/A   Clear
1:35 AM 50.5 °F - 45.9 °F 84% 29.90 in 10.0 mi SSE 8.1 mph - N/A   Clear
1:55 AM 50.4 °F - 46.4 °F 86% 29.90 in 10.0 mi SSE 6.9 mph - N/A   Clear
2:15 AM 50.9 °F - 47.7 °F 89% 29.90 in 10.0 mi SSE 8.1 mph - N/A   Mostly Cloudy
2:35 AM 51.8 °F - 47.8 °F 86% 29.90 in 10.0 mi SSE 9.2 mph - N/A   Overcast
2:55 AM 52.0 °F - 48.0 °F 86% 29.90 in 10.0 mi South 8.1 mph - N/A   Overcast
3:15 AM 52.5 °F - 48.0 °F 85% 29.93 in 10.0 mi Calm Calm - N/A   Overcast
3:35 AM 52.7 °F - 48.2 °F 85% 29.93 in 10.0 mi SE 3.5 mph - N/A   Overcast
3:55 AM 52.7 °F - 48.4 °F 85% 29.95 in 10.0 mi Calm Calm - N/A   Overcast
4:15 AM 52.7 °F - 48.4 °F 85% 29.95 in 10.0 mi Calm Calm - N/A   Overcast
4:35 AM 52.7 °F - 48.4 °F 85% 29.95 in 10.0 mi SE 4.6 mph - N/A   Overcast
4:55 AM 52.9 °F - 48.4 °F 85% 29.96 in 10.0 mi SE 5.8 mph - N/A   Overcast
5:15 AM 52.7 °F - 48.4 °F 85% 29.97 in 10.0 mi SSE 3.5 mph - N/A   Overcast
5:35 AM 52.9 °F - 48.6 °F 85% 29.98 in 10.0 mi SE 4.6 mph - N/A   Overcast
5:55 AM 52.9 °F - 48.7 °F 86% 29.98 in 10.0 mi SE 6.9 mph - N/A   Overcast
6:15 AM 53.1 °F - 49.1 °F 86% 29.99 in 10.0 mi SSE 8.1 mph - N/A   Overcast
6:35 AM 53.1 °F - 49.5 °F 88% 30.00 in 7.0 mi SE 9.2 mph - N/A   Overcast
6:55 AM 52.7 °F - 49.1 °F 88% 30.00 in 7.0 mi SE 9.2 mph - N/A   Overcast
7:15 AM 52.7 °F - 49.1 °F 88% 30.00 in 5.0 mi SE 10.4 mph - N/A   Overcast
7:35 AM 52.3 °F - 49.6 °F 91% 30.01 in 4.0 mi SE 9.2 mph - N/A   Overcast
7:55 AM 51.4 °F - 49.5 °F 93% 30.02 in 2.5 mi SE 11.5 mph 17.3 mph N/A   Overcast
8:15 AM 51.3 °F - 49.5 °F 94% 30.04 in 2.0 mi SSE 8.1 mph - N/A   Overcast
8:35 AM 51.3 °F - 49.5 °F 94% 30.05 in 2.0 mi SSE 8.1 mph - N/A   Overcast
8:55 AM 52.0 °F - 50.0 °F 93% 30.06 in 2.5 mi South 6.9 mph - N/A   Overcast
9:15 AM 52.2 °F - 50.0 °F 92% 30.07 in 2.5 mi South 6.9 mph - N/A   Overcast
9:35 AM 52.3 °F - 50.0 °F 92% 30.08 in 3.0 mi South 6.9 mph - N/A   Overcast
9:55 AM 52.7 °F - 50.0 °F 91% 30.10 in 3.0 mi South 6.9 mph - N/A   Overcast
10:15 AM 53.2 °F - 50.4 °F 90% 30.10 in 3.0 mi WSW 10.4 mph - N/A   Overcast
10:35 AM 51.4 °F - 41.2 °F 68% 30.11 in 7.0 mi West 10.4 mph - N/A   Overcast
10:55 AM 51.6 °F - 40.1 °F 65% 30.12 in 7.0 mi West 11.5 mph - N/A   Overcast
11:15 AM 51.3 °F - 39.4 °F 64% 30.13 in 7.0 mi West 11.5 mph 18.4 mph N/A   Overcast
11:35 AM 50.2 °F - 37.9 °F 63% 30.12 in 5.0 mi NW 9.2 mph 19.6 mph N/A   Haze
11:55 AM 49.6 °F - 37.4 °F 63% 30.12 in 5.0 mi NW 10.4 mph 16.1 mph N/A   Haze
12:15 PM 49.5 °F - 37.6 °F 64% 30.14 in 5.0 mi WNW 11.5 mph - N/A   Haze
12:35 PM 49.1 °F - 37.4 °F 64% 30.15 in 5.0 mi WNW 16.1 mph - N/A   Haze
12:55 PM 48.7 °F - 37.2 °F 64% 30.15 in 5.0 mi WNW 16.1 mph 21.9 mph N/A   Haze
1:15 PM 48.2 °F - 37.2 °F 66% 30.14 in 5.0 mi NW 17.3 mph 23.0 mph N/A   Haze
1:35 PM 47.3 °F - 36.5 °F 66% 30.14 in 5.0 mi NW 15.0 mph - N/A   Haze
1:55 PM 46.6 °F - 36.0 °F 67% 30.13 in 5.0 mi NW 13.8 mph 18.4 mph N/A   Haze
2:15 PM 47.1 °F - 36.1 °F 66% 30.14 in 5.0 mi NW 16.1 mph 21.9 mph N/A   Haze
2:35 PM 47.3 °F - 36.9 °F 67% 30.14 in 5.0 mi NW 16.1 mph - N/A   Haze
2:55 PM 48.4 °F - 36.5 °F 64% 30.14 in 5.0 mi NW 12.7 mph - N/A   Haze
3:15 PM 48.2 °F - 35.8 °F 62% 30.15 in 5.0 mi NW 16.1 mph 24.2 mph N/A   Haze
3:35 PM 47.8 °F - 35.8 °F 63% 30.15 in 5.0 mi NW 18.4 mph 24.2 mph N/A   Haze
3:55 PM 47.5 °F - 35.6 °F 63% 30.16 in 5.0 mi NW 16.1 mph 20.7 mph N/A   Haze
4:15 PM 45.7 °F 38.3 °F 34.7 °F 65% 30.17 in 5.0 mi NW 18.4 mph 24.2 mph N/A   Haze
4:35 PM 45.0 °F 37.4 °F 34.3 °F 66% 30.18 in 5.0 mi NNW 18.4 mph 25.3 mph N/A   Haze
4:55 PM 43.7 °F 35.7 °F 34.3 °F 70% 30.19 in 5.0 mi NNW 18.4 mph 24.2 mph N/A   Haze
5:15 PM 43.5 °F 36.7 °F 33.8 °F 69% 30.20 in 5.0 mi NW 13.8 mph 21.9 mph N/A   Haze
5:35 PM 43.0 °F 36.8 °F 33.3 °F 69% 30.20 in 5.0 mi NNW 11.5 mph - N/A   Haze
6:00 PM 43.0 °F 35.1 °F 32.4 °F 66% 30.21 in 5.0 mi NW 17.3 mph 21.9 mph N/A   Haze
6:15 PM 42.3 °F 33.8 °F 32.0 °F 67% 30.21 in 5.0 mi NNW 18.4 mph - N/A   Haze
6:35 PM 41.9 °F 34.3 °F 32.0 °F 68% 30.21 in 7.0 mi NNW 15.0 mph 21.9 mph N/A   Mostly Cloudy
6:55 PM 41.9 °F 32.6 °F 32.0 °F 68% 30.21 in 7.0 mi NNW 21.9 mph 27.6 mph N/A   Mostly Cloudy
7:15 PM 41.4 °F 33.6 °F 32.0 °F 69% 30.23 in 7.0 mi North 15.0 mph 23.0 mph N/A   Overcast
7:35 PM 41.4 °F 34.0 °F 32.0 °F 69% 30.23 in 7.0 mi North 13.8 mph - N/A   Overcast
7:55 PM 41.4 °F 34.3 °F 32.2 °F 70% 30.25 in 7.0 mi NNW 12.7 mph - N/A   Overcast
8:15 PM 40.6 °F 34.3 °F 33.8 °F 77% 30.27 in 7.0 mi NNW 10.4 mph 20.7 mph N/A Rain Light Rain
8:35 PM 40.1 °F 32.7 °F 34.2 °F 79% 30.29 in 7.0 mi NW 12.7 mph - N/A   Drizzle
8:55 PM 39.2 °F 31.6 °F 34.7 °F 84% 30.29 in 5.0 mi NNW 12.7 mph - N/A   Light Drizzle
9:15 PM 38.8 °F 32.1 °F 34.7 °F 85% 30.28 in 5.0 mi NNW 10.4 mph - N/A   Mostly Cloudy
9:35 PM 38.7 °F 30.5 °F 33.1 °F 80% 30.28 in 7.0 mi NNW 13.8 mph 18.4 mph N/A   Clear
9:55 PM 38.5 °F 31.1 °F 32.9 °F 80% 30.28 in 7.0 mi NNW 11.5 mph - N/A   Clear
10:15 PM 38.3 °F 33.2 °F 32.9 °F 81% 30.30 in 7.0 mi NNW 6.9 mph - N/A   Scattered Clouds
10:40 PM 37.9 °F 33.5 °F 32.4 °F 80% 30.31 in 7.0 mi NW 5.8 mph - N/A   Scattered Clouds
10:55 PM 38.1 °F 31.7 °F 32.2 °F 79% 30.32 in 7.0 mi NW 9.2 mph - N/A   Mostly Cloudy
11:15 PM 38.3 °F 33.2 °F 32.4 °F 79% 30.32 in 7.0 mi NW 6.9 mph - N/A   Overcast
11:35 PM 38.3 °F 30.9 °F 32.5 °F 80% 30.32 in 7.0 mi NNW 11.5 mph - N/A   Overcast
11:55 PM 38.5 °F 31.6 °F 32.5 °F 79% 30.30 in 7.0 mi NNW 10.4 mph - N/A   Overcast